Weather History for Moline, IL

Change the Weather History Date:

Tuesday, November 12, 2013

  Actual Average Record
Temperature  
Mean Temperature 25 °F 42 °F  
Max Temperature 31 °F 51 °F 72 °F (1902)
Min Temperature 18 °F 33 °F 8 °F (1986)
Degree Days  
Heating Degree Days 40 23  
Month to date heating degree days 281 242  
Since 1 July heating degree days 780 724  
Cooling Degree Days 0 0  
Month to date cooling degree days 0 0  
Year to date cooling degree days 998 1003  
Moisture  
Dew Point 13 °F    
Average Humidity 63    
Maximum Humidity 77    
Minimum Humidity 49    
Precipitation  
Precipitation 0.00 in 0.08 in 0.98 in (1985)
Month to date precipitation 0.51 1.05  
Year to date precipitation 37.31 34.27  
Snow  
Snow 0.00 in 0.00 in - ()
Month to date snowfall 0.6 0.1  
Since 1 July snowfall 1.0 0.1  
Since 1 September snowfall 1.0 0.1  
Snow Depth T in    
Sea Level Pressure  
Sea Level Pressure 30.73 in    
Wind  
Wind Speed 7 mph (NW)    
Max Wind Speed 16 mph    
Max Gust Speed 18 mph    
Visibility 10 miles    
Events      
T = Trace of Precipitation, MM = Missing Value Source: NWS Daily Summary

Daily Weather History Graph

Daily Weather History Graph

Search for Another Location

Airport:

Trip Planner

Search our weather history database for the weather conditions in past years. The results will help you decide how hot, cold, wet, or windy it might be!

Date:

Astronomy

Nov. 12, 2013 Rise Set
Actual Time 6:47 AM CST 4:44 PM CST
Civil Twilight 6:17 AM CST 5:14 PM CST
Nautical Twilight 5:44 AM CST 5:47 PM CST
Astronomical Twilight 5:11 AM CST 6:20 PM CST
Moon 2:02 PM CST (11/12) 1:33 AM CST (11/12)
Length of Visible Light 10h 56m
Length of Day
9h 57m
Waxing Gibbous, 76% of the Moon is Illuminated
Nov 12
Waxing Gibbous
Nov 17
Full
Nov 25
Last Quarter
Dec 2
New
Dec 9
First Quarter

Hourly Weather History & Observations

Time (CST) Temp. Windchill Dew Point Humidity Pressure Visibility Wind Dir Wind Speed Gust Speed Precip Events Conditions
12:52 AM 21.9 °F 11.7 °F 12.9 °F 68% 30.64 in 10.0 mi NNW 9.2 mph - N/A   Clear
1:52 AM 21.9 °F 12.5 °F 12.9 °F 68% 30.66 in 10.0 mi NNW 8.1 mph - N/A   Clear
2:52 AM 21.0 °F 10.6 °F 12.0 °F 68% 30.68 in 10.0 mi NNW 9.2 mph - N/A   Clear
3:52 AM 19.9 °F 10.1 °F 12.0 °F 71% 30.71 in 10.0 mi NNW 8.1 mph - N/A   Clear
4:52 AM 19.0 °F 10.0 °F 10.9 °F 71% 30.73 in 10.0 mi NNW 6.9 mph - N/A   Clear
5:52 AM 19.0 °F 12.3 °F 10.9 °F 71% 30.76 in 10.0 mi Variable 4.6 mph - N/A   Clear
6:52 AM 18.0 °F 11.1 °F 10.9 °F 74% 30.77 in 10.0 mi North 4.6 mph - N/A   Clear
7:52 AM 21.0 °F 12.4 °F 12.0 °F 68% 30.79 in 10.0 mi NNW 6.9 mph - N/A   Clear
8:52 AM 23.0 °F 13.1 °F 12.9 °F 65% 30.81 in 10.0 mi NNW 9.2 mph - N/A   Clear
9:52 AM 25.0 °F 16.3 °F 15.1 °F 66% 30.80 in 10.0 mi NW 8.1 mph - N/A   Clear
10:52 AM 28.0 °F 20.0 °F 18.0 °F 66% 30.80 in 10.0 mi NW 8.1 mph - N/A   Clear
11:52 AM 28.9 °F 18.6 °F 17.1 °F 61% 30.79 in 10.0 mi WNW 12.7 mph - N/A   Clear
12:52 PM 30.0 °F 19.1 °F 16.0 °F 56% 30.76 in 10.0 mi NW 15.0 mph - N/A   Clear
1:52 PM 30.9 °F 21.7 °F 15.1 °F 52% 30.76 in 10.0 mi NW 11.5 mph - N/A   Clear
2:52 PM 30.0 °F 23.2 °F 14.0 °F 51% 30.74 in 10.0 mi WNW 6.9 mph - N/A   Clear
3:52 PM 28.9 °F 21.1 °F 12.9 °F 51% 30.73 in 10.0 mi WNW 8.1 mph - N/A   Clear
4:52 PM 27.0 °F 18.0 °F 12.9 °F 56% 30.72 in 10.0 mi NW 9.2 mph - N/A   Clear
5:52 PM 26.1 °F 21.9 °F 14.0 °F 60% 30.72 in 10.0 mi WNW 3.5 mph - N/A   Clear
6:52 PM 25.0 °F 17.1 °F 14.0 °F 63% 30.72 in 10.0 mi WNW 6.9 mph - N/A   Clear
7:52 PM 21.0 °F 16.2 °F 14.0 °F 74% 30.69 in 10.0 mi SSW 3.5 mph - N/A   Clear
8:52 PM 19.9 °F - 14.0 °F 78% 30.69 in 10.0 mi Calm Calm - N/A   Clear
9:52 PM 19.9 °F 13.4 °F 14.0 °F 78% 30.70 in 10.0 mi SW 4.6 mph - N/A   Clear
10:52 PM 19.0 °F 12.3 °F 12.9 °F 77% 30.68 in 10.0 mi SW 4.6 mph - N/A   Clear
11:52 PM 19.0 °F 12.3 °F 12.0 °F 74% 30.66 in 10.0 mi SW 4.6 mph - N/A   Clear